Terminal Aerodrome Forecast
Issued by NWS

Home | Current Version | Previous Version | Text Only | Print | Product List | Glossary On
Versions: 1 2 3 4 5 6 7 8 9 10 11 12 13 14 15 16 17 18 19 20 21 22 23 24 25 26 27 28 29 30 31 32 33 34 35 36 37 38 39 40 41 42 43 44 45 46 47 48 49 50
000
FTUS46 KOTX 222338
TAFSFF
TAF
KSFF 222338Z 2300/2324 23008KT P6SM BKN120
     FM230900 24005KT P6SM BKN015
     FM231500 20004KT P6SM -SN BKN016 OVC060
     FM231900 22013KT P6SM -RA BKN019 OVC045=

USA.gov is the U.S. government's official web portal to all federal, state and local government web resources and services.